Skip Page Navigation
NASA JPL Caltech
NASA Logo - Jet Propulsion Laboratory + View the NASA Portal
+ Center for Near-Earth Object Studies
JPL Home Earth Solar System Stars & Galaxies Technology
JPL Solar System Dynamics
BODIES ORBITS EPHEMERIDES TOOLS PHYSICAL DATA DISCOVERY FAQ SITE MAP
JPL Small-Body Database Browser
Search: [ help ]  
109892 (2001 SZ10)
Classification: Main-belt Asteroid          SPK-ID: 2109892
Ephemeris | Orbit Diagram | Orbital Elements | Mission Design | Physical Parameters | Discovery Circumstances | Close-Approach Data ]

[ show orbit diagram ]
Orbital Elements at Epoch 2459000.5 (2020-May-31.0) TDB
Reference: JPL 23 (heliocentric ecliptic J2000)
 Element Value Uncertainty (1-sigma)   Units 
e .0113176841555624 3.9027e-08  
a 3.073054613428917 2.5277e-08 au
q 3.038274751921335 1.2235e-07 au
i 14.01837007563811 4.4668e-06 deg
node 195.805683556919 1.7849e-05 deg
peri 97.82738661109418 0.00020853 deg
M 221.8106462813949 0.00020958 deg
tp 2459755.811208612251
(2022-Jun-25.31120861)
0.0011484 TDB
period 1967.677160239889
5.39
2.4277e-05
6.647e-08
d
yr
n .1829568423491335 2.2573e-09 deg/d
Q 3.1078344749365 2.5563e-08 au
  Orbit Determination Parameters
   # obs. used (total)      680  
   data-arc span      6825 days (18.69 yr)  
   first obs. used      2001-08-16  
   last obs. used      2020-04-23  
   planetary ephem.      DE431  
   SB-pert. ephem.      SB431-N16  
   condition code      0  
   norm. resid. RMS      .55595  
   source      ORB  
   producer      Otto Matic  
   solution date      2020-May-20 19:09:52  

Additional Information
 Earth MOID = 2.05576 au 
 Jupiter MOID = 1.88584 au 
 T_jup = 3.184 
[ show covariance matrix ]

Ephemeris | Orbit Diagram | Orbital Elements | Mission Design | Physical Parameters | Discovery Circumstances | Close-Approach Data ]

Physical Parameter Table
Parameter Symbol Value Units Sigma Reference Notes
absolute magnitude H 14.8   n/a MPO469126  
diameter diameter 6.954 km 0.146 urn:nasa:pds:neowise_diameters_albedos::2.0[mainbelt] (http://adsabs.harvard.edu/abs/2011ApJ...741...68M)  
geometric albedo albedo 0.046   0.004 urn:nasa:pds:neowise_diameters_albedos::2.0[mainbelt] (http://adsabs.harvard.edu/abs/2011ApJ...741...68M)  

109892 (2001 SZ10)          Discovered 2001-Sep-16 by LINEAR at Socorro
Reference: 20051019/Numbers.arcLast Updated: 2005-10-26

[ show close-approach data ]
Ephemeris | Orbit Diagram | Orbital Elements | Mission Design | Physical Parameters | Discovery Circumstances | Close-Approach Data ]
ABOUT SSD CREDITS/AWARDS PRIVACY/COPYRIGHT GLOSSARY LINKS
FirstGov 2020-Oct-26 02:26 UT
(server date/time)  
NASA Home Page
Site Manager:   Ryan S. Park
Webmaster  Alan B. Chamberlin